{"data":{"norad_id":59326,"intl_designator":"2024-057G","name":"STARLINK-31632","alt_names":[],"object_type":"PAYLOAD","status":"ACTIVE","operator":null,"country":"US","launch_date":"2024-03-25","launch_site_code":"AFETR","launch_vehicle":null,"mission":null,"orbit_class":"UNKNOWN","rcs_meters":null,"size_class":null,"mass_kg":null,"dimensions":null,"purposes":["comms"],"wikipedia_slug":null,"has_3d_model":false,"image_url":null,"decayed_at":null,"tle_current":{"epoch":"2026-09-21T03:49:54.831360Z","epoch_age_seconds":105287,"freshness":"FRESH","line1":"1 59326U 24057G   26264.15966240  .00015217  00000+0  56113-3 0  9990","line2":"2 59326  42.9997 174.4134 0001346 274.1408  85.9290 15.27593843139600","mean_motion":15.27593843,"eccentricity":0.0001346,"inclination_deg":42.9997,"raan_deg":174.4134,"arg_perigee_deg":274.1408,"mean_anomaly_deg":85.929,"bstar":0.00056113,"rev_number":13960,"period_min":94.265894471794,"perigee_km":482.08413536141,"apogee_km":483.93115549996,"semimajor_km":6861.1446454307,"source":"CELESTRAK","updated_at":"2026-09-22T09:00:48.898932Z"}}}